| time (UTC) | temp F | wind direction | speed MPH | gust MPH | rain 1hr in | rain 24hr in | rain mn in | humidity % | barometer mb |
| 20260508203518 | 57 | 0.0 | 0.0 | 0.00 | 0.00 | 0.00 | 69 | 1019.6 | |
| 20260508202516 | 58 | 0.0 | 1.0 | 0.00 | 0.00 | 0.00 | 70 | 1019.7 | |
| 20260508201516 | 58 | 0.0 | 0.0 | 0.00 | 0.00 | 0.00 | 68 | 1019.5 | |
| 20260508200516 | 59 | 0.0 | 0.0 | 0.00 | 0.00 | 0.00 | 66 | 1019.5 | |
| 20260508195516 | 59 | 0.0 | 2.0 | 0.00 | 0.00 | 0.00 | 67 | 1019.5 | |
| 20260508194516 | 59 | 0.0 | 0.0 | 0.00 | 0.00 | 0.00 | 67 | 1019.4 | |
| 20260508193516 | 59 | 0.0 | 1.0 | 0.00 | 0.00 | 0.00 | 66 | 1019.2 | |
| 20260508192516 | 59 | 0.0 | 1.0 | 0.00 | 0.00 | 0.00 | 64 | 1019.2 | |
| 20260508191516 | 60 | 0.0 | 2.0 | 0.00 | 0.00 | 0.00 | 63 | 1019.1 | |
| 20260508190516 | 60 | 0.0 | 3.0 | 0.00 | 0.00 | 0.00 | 63 | 1019.0 | |
| 20260508185516 | 60 | 0.0 | 1.0 | 0.00 | 0.00 | 0.00 | 62 | 1018.8 | |
| 20260508184516 | 60 | 0.0 | 2.0 | 0.00 | 0.00 | 0.00 | 62 | 1018.8 | |
| 20260508183518 | 61 | 0.0 | 2.0 | 0.00 | 0.00 | 0.00 | 62 | 1018.7 | |
| 20260508182516 | 61 | 158 | 1.0 | 2.0 | 0.00 | 0.00 | 0.00 | 61 | 1018.5 |
| 20260508181539 | 61 | 158 | 1.0 | 4.0 | 0.00 | 0.00 | 0.00 | 60 | 1018.6 |
| 20260508180516 | 61 | 158 | 1.0 | 3.0 | 0.00 | 0.00 | 0.00 | 60 | 1018.5 |
| 20260508175536 | 62 | 158 | 2.0 | 6.0 | 0.00 | 0.00 | 0.00 | 59 | 1018.6 |
| 20260508174516 | 62 | 158 | 1.0 | 3.0 | 0.00 | 0.00 | 0.00 | 58 | 1018.4 |
| 20260508173516 | 62 | 135 | 1.0 | 5.0 | 0.00 | 0.00 | 0.00 | 58 | 1018.4 |
| 20260508172516 | 62 | 158 | 1.0 | 3.0 | 0.00 | 0.00 | 0.00 | 57 | 1018.4 |
| 20260508171516 | 62 | 158 | 1.0 | 4.0 | 0.00 | 0.00 | 0.00 | 57 | 1018.3 |
| 20260508170516 | 62 | 158 | 2.0 | 7.0 | 0.00 | 0.00 | 0.00 | 56 | 1018.2 |
| 20260508165516 | 62 | 158 | 2.0 | 6.0 | 0.00 | 0.00 | 0.00 | 59 | 1018.2 |
| 20260508164516 | 62 | 158 | 2.0 | 5.0 | 0.00 | 0.00 | 0.00 | 60 | 1018.1 |
| 20260508163516 | 62 | 158 | 1.0 | 4.0 | 0.00 | 0.00 | 0.00 | 61 | 1018.1 |
| 20260508162516 | 62 | 158 | 2.0 | 9.0 | 0.00 | 0.00 | 0.00 | 61 | 1018.0 |
| 20260508161536 | 61 | 180 | 1.0 | 5.0 | 0.00 | 0.00 | 0.00 | 67 | 1018.0 |
| 20260508160516 | 61 | 0.0 | 2.0 | 0.00 | 0.00 | 0.00 | 69 | 1018.0 | |
| 20260508155516 | 60 | 0.0 | 2.0 | 0.00 | 0.00 | 0.00 | 69 | 1018.0 | |
| 20260508154516 | 60 | 90 | 1.0 | 3.0 | 0.00 | 0.00 | 0.00 | 66 | 1018.0 |
| 20260508153516 | 62 | 158 | 3.0 | 10.0 | 0.00 | 0.00 | 0.00 | 60 | 1018.2 |
| 20260508152536 | 63 | 135 | 3.0 | 9.0 | 0.00 | 0.00 | 0.00 | 59 | 1018.2 |
| 20260508151516 | 63 | 158 | 1.0 | 6.0 | 0.00 | 0.00 | 0.00 | 56 | 1018.2 |
| 20260508150516 | 63 | 158 | 2.0 | 9.0 | 0.00 | 0.00 | 0.00 | 55 | 1018.1 |
| 20260508145535 | 64 | 135 | 1.0 | 5.0 | 0.00 | 0.00 | 0.00 | 54 | 1018.0 |
| 20260508144515 | 65 | 135 | 1.0 | 3.0 | 0.00 | 0.00 | 0.00 | 53 | 1018.0 |
| 20260508143556 | 65 | 135 | 1.0 | 3.0 | 0.00 | 0.00 | 0.00 | 53 | 1018.0 |
| 20260508142515 | 64 | 158 | 2.0 | 8.0 | 0.00 | 0.00 | 0.00 | 54 | 1018.0 |
| 20260508141535 | 64 | 135 | 1.0 | 4.0 | 0.00 | 0.00 | 0.00 | 55 | 1018.1 |
| 20260508140536 | 65 | 135 | 2.0 | 6.0 | 0.00 | 0.00 | 0.00 | 53 | 1018.1 |
| 20260508135515 | 64 | 135 | 2.0 | 7.0 | 0.00 | 0.01 | 0.00 | 52 | 1018.1 |
| 20260508134516 | 64 | 135 | 2.0 | 4.0 | 0.00 | 0.01 | 0.00 | 53 | 1018.2 |
| 20260508133516 | 65 | 158 | 3.0 | 9.0 | 0.00 | 0.01 | 0.00 | 53 | 1018.1 |
| 20260508132516 | 65 | 158 | 3.0 | 9.0 | 0.00 | 0.01 | 0.00 | 51 | 1018.2 |
| 20260508131516 | 65 | 135 | 2.0 | 8.0 | 0.00 | 0.01 | 0.00 | 52 | 1018.4 |
| 20260508130535 | 66 | 180 | 2.0 | 8.0 | 0.00 | 0.01 | 0.00 | 51 | 1018.4 |
| 20260508125515 | 66 | 180 | 2.0 | 8.0 | 0.00 | 0.01 | 0.00 | 53 | 1018.5 |
| 20260508124536 | 64 | 113 | 1.0 | 5.0 | 0.00 | 0.01 | 0.00 | 55 | 1018.5 |
| 20260508123515 | 64 | 158 | 2.0 | 5.0 | 0.00 | 0.01 | 0.00 | 52 | 1018.6 |
| 20260508122515 | 65 | 135 | 2.0 | 7.0 | 0.00 | 0.01 | 0.00 | 51 | 1018.6 |
| 20260508121515 | 65 | 135 | 1.0 | 4.0 | 0.00 | 0.01 | 0.00 | 53 | 1018.7 |
| 20260508120515 | 66 | 158 | 3.0 | 9.0 | 0.00 | 0.01 | 0.00 | 56 | 1018.6 |
| 20260508115515 | 65 | 158 | 1.0 | 4.0 | 0.00 | 0.01 | 0.00 | 57 | 1018.6 |
| 20260508114515 | 65 | 158 | 3.0 | 7.0 | 0.00 | 0.01 | 0.00 | 57 | 1018.6 |
| 20260508113515 | 64 | 158 | 2.0 | 6.0 | 0.00 | 0.01 | 0.00 | 56 | 1018.7 |
| 20260508112515 | 64 | 135 | 2.0 | 5.0 | 0.00 | 0.01 | 0.00 | 57 | 1018.8 |
| 20260508111517 | 64 | 158 | 3.0 | 9.0 | 0.00 | 0.01 | 0.00 | 56 | 1018.7 |
| 20260508110537 | 62 | 158 | 2.0 | 6.0 | 0.00 | 0.01 | 0.00 | 61 | 1018.8 |
| 20260508105517 | 62 | 158 | 2.0 | 9.0 | 0.00 | 0.01 | 0.00 | 61 | 1018.8 |
| 20260508104517 | 61 | 135 | 1.0 | 3.0 | 0.00 | 0.01 | 0.00 | 63 | 1018.9 |
| 20260508103517 | 61 | 158 | 3.0 | 7.0 | 0.00 | 0.01 | 0.00 | 64 | 1018.9 |
| 20260508102517 | 61 | 135 | 1.0 | 5.0 | 0.00 | 0.01 | 0.00 | 63 | 1018.8 |
| 20260508101517 | 61 | 113 | 1.0 | 5.0 | 0.00 | 0.01 | 0.00 | 63 | 1018.8 |
| 20260508100517 | 61 | 158 | 1.0 | 5.0 | 0.00 | 0.01 | 0.00 | 62 | 1018.8 |
| 20260508095517 | 61 | 158 | 1.0 | 4.0 | 0.00 | 0.01 | 0.00 | 62 | 1018.8 |
| 20260508094517 | 61 | 90 | 2.0 | 7.0 | 0.00 | 0.01 | 0.00 | 62 | 1018.6 |
| 20260508093517 | 63 | 113 | 1.0 | 5.0 | 0.00 | 0.01 | 0.00 | 62 | 1018.6 |
| 20260508092517 | 61 | 90 | 1.0 | 7.0 | 0.00 | 0.01 | 0.00 | 64 | 1018.7 |
| 20260508091517 | 61 | 90 | 1.0 | 4.0 | 0.00 | 0.01 | 0.00 | 63 | 1018.9 |
| 20260508090517 | 61 | 158 | 2.0 | 4.0 | 0.00 | 0.01 | 0.00 | 65 | 1018.9 |
| 20260508085517 | 60 | 135 | 1.0 | 2.0 | 0.00 | 0.01 | 0.00 | 65 | 1018.9 |
| 20260508084517 | 60 | 113 | 1.0 | 6.0 | 0.00 | 0.01 | 0.00 | 65 | 1018.9 |
| 20260508083517 | 61 | 180 | 1.0 | 3.0 | 0.00 | 0.01 | 0.00 | 66 | 1019.0 |
| 20260508082517 | 59 | 113 | 1.0 | 2.0 | 0.00 | 0.01 | 0.00 | 68 | 1019.0 |
| 20260508081537 | 59 | 158 | 1.0 | 4.0 | 0.00 | 0.01 | 0.00 | 68 | 1019.1 |
| 20260508080517 | 60 | 158 | 1.0 | 4.0 | 0.00 | 0.01 | 0.00 | 68 | 1019.0 |
| 20260508075517 | 59 | 180 | 1.0 | 4.0 | 0.00 | 0.01 | 0.00 | 70 | 1019.0 |
| 20260508074557 | 59 | 0.0 | 3.0 | 0.00 | 0.01 | 0.00 | 72 | 1018.8 | |
| 20260508073517 | 57 | 90 | 1.0 | 2.0 | 0.00 | 0.01 | 0.00 | 75 | 1018.8 |
| 20260508072517 | 56 | 0.0 | 1.0 | 0.00 | 0.01 | 0.00 | 74 | 1018.7 | |
| 20260508071517 | 56 | 0.0 | 2.0 | 0.00 | 0.01 | 0.00 | 74 | 1018.6 | |
| 20260508070537 | 57 | 0.0 | 3.0 | 0.00 | 0.01 | 0.00 | 74 | 1018.5 | |
| 20260508065517 | 55 | 0.0 | 1.0 | 0.00 | 0.01 | 0.00 | 77 | 1018.4 | |
| 20260508064516 | 55 | 0.0 | 1.0 | 0.00 | 0.01 | 0.00 | 77 | 1018.4 | |
| 20260508063517 | 54 | 0.0 | 0.0 | 0.00 | 0.01 | 0.00 | 81 | 1018.5 | |
| 20260508062516 | 51 | 0.0 | 0.0 | 0.00 | 0.01 | 0.00 | 86 | 1018.2 | |
| 20260508061517 | 51 | 0.0 | 0.0 | 0.00 | 0.01 | 0.00 | 86 | 1018.1 | |
| 20260508060516 | 50 | 0.0 | 0.0 | 0.00 | 0.01 | 0.00 | 87 | 1018.1 | |
| 20260508055517 | 50 | 0.0 | 0.0 | 0.00 | 0.01 | 0.00 | 87 | 1018.1 | |
| 20260508054517 | 50 | 0.0 | 0.0 | 0.00 | 0.01 | 0.00 | 87 | 1017.9 | |
| 20260508053516 | 49 | 0.0 | 0.0 | 0.00 | 0.01 | 0.00 | 87 | 1018.0 | |
| 20260508052516 | 49 | 0.0 | 0.0 | 0.00 | 0.01 | 0.00 | 87 | 1017.8 | |
| 20260508051516 | 49 | 0.0 | 0.0 | 0.00 | 0.01 | 0.00 | 87 | 1017.7 | |
| 20260508050516 | 49 | 0.0 | 0.0 | 0.00 | 0.01 | 0.00 | 87 | 1017.6 | |
| 20260508045536 | 49 | 0.0 | 0.0 | 0.00 | 0.01 | 0.00 | 87 | 1017.5 | |
| 20260508044517 | 49 | 0.0 | 0.0 | 0.00 | 0.01 | 0.00 | 87 | 1017.5 | |
| 20260508043536 | 49 | 0.0 | 0.0 | 0.00 | 0.01 | 0.00 | 86 | 1017.5 | |
| 20260508042536 | 49 | 0.0 | 0.0 | 0.00 | 0.01 | 0.00 | 86 | 1017.7 | |
| 20260508041516 | 49 | 0.0 | 0.0 | 0.00 | 0.01 | 0.00 | 86 | 1017.5 | |
| 20260508040516 | 49 | 0.0 | 3.0 | 0.00 | 0.01 | 0.00 | 85 | 1017.5 | |
| 20260508035516 | 50 | 158 | 1.0 | 3.0 | 0.00 | 0.01 | 0.00 | 85 | 1017.4 |
| 20260508034516 | 50 | 0.0 | 3.0 | 0.00 | 0.01 | 0.00 | 84 | 1017.5 | |
| 20260508033516 | 50 | 0.0 | 3.0 | 0.00 | 0.01 | 0.00 | 84 | 1017.5 | |
| 20260508032516 | 50 | 158 | 1.0 | 4.0 | 0.00 | 0.01 | 0.00 | 84 | 1017.4 |
| 20260508031516 | 50 | 0.0 | 2.0 | 0.00 | 0.01 | 0.00 | 84 | 1017.6 | |
| 20260508030536 | 51 | 0.0 | 2.0 | 0.00 | 0.01 | 0.00 | 84 | 1017.4 | |
| 20260508025536 | 51 | 0.0 | 3.0 | 0.00 | 0.01 | 0.00 | 84 | 1017.5 | |
| 20260508024516 | 51 | 0.0 | 2.0 | 0.00 | 0.01 | 0.00 | 84 | 1017.4 | |
| 20260508023516 | 51 | 0.0 | 4.0 | 0.00 | 0.01 | 0.00 | 84 | 1017.6 | |
| 20260508022516 | 51 | 0.0 | 4.0 | 0.00 | 0.01 | 0.00 | 84 | 1017.6 | |
| 20260508021556 | 51 | 135 | 1.0 | 4.0 | 0.00 | 0.01 | 0.00 | 83 | 1017.7 |
| 20260508020516 | 51 | 158 | 1.0 | 5.0 | 0.00 | 0.01 | 0.00 | 83 | 1017.7 |
| 20260508015516 | 51 | 180 | 1.0 | 4.0 | 0.00 | 0.01 | 0.00 | 83 | |
| 20260508014536 | 51 | 158 | 1.0 | 5.0 | 0.00 | 0.01 | 0.00 | 83 | |
| 20260508013516 | 51 | 158 | 1.0 | 2.0 | 0.00 | 0.01 | 0.00 | 83 | |
| 20260508012516 | 51 | 180 | 1.0 | 3.0 | 0.00 | 0.01 | 0.00 | 83 | |
| 20260508011516 | 51 | 158 | 2.0 | 6.0 | 0.00 | 0.01 | 0.00 | 83 | |
| 20260508010516 | 51 | 158 | 1.0 | 5.0 | 0.00 | 0.01 | 0.00 | 83 | |
| 20260508005536 | 52 | 158 | 1.0 | 3.0 | 0.00 | 0.01 | 0.00 | 82 | |
| 20260508004516 | 52 | 158 | 1.0 | 4.0 | 0.00 | 0.01 | 0.00 | 82 | |
| 20260508003516 | 52 | 158 | 2.0 | 7.0 | 0.00 | 0.01 | 0.00 | 82 | |
| 20260508002516 | 52 | 158 | 1.0 | 4.0 | 0.00 | 0.01 | 0.00 | 82 | |
| 20260508001516 | 52 | 0.0 | 2.0 | 0.00 | 0.01 | 0.00 | 81 | ||
| 20260508000516 | 52 | 158 | 2.0 | 4.0 | 0.00 | 0.01 | 0.00 | 81 | |
| 20260507235516 | 52 | 158 | 1.0 | 4.0 | 0.00 | 0.01 | 0.00 | 80 | |
| 20260507234516 | 52 | 158 | 1.0 | 3.0 | 0.00 | 0.01 | 0.00 | 79 | |
| 20260507233516 | 52 | 158 | 1.0 | 3.0 | 0.00 | 0.01 | 0.00 | 80 | 1017.7 |
| 20260507232516 | 52 | 0.0 | 0.0 | 0.00 | 0.01 | 0.00 | 79 | 1017.7 | |
| 20260507231516 | 52 | 0.0 | 0.0 | 0.00 | 0.01 | 0.00 | 79 | 1017.7 | |
| 20260507230516 | 53 | 0.0 | 2.0 | 0.00 | 0.01 | 0.00 | 78 | 1017.8 | |
| 20260507225516 | 53 | 158 | 1.0 | 4.0 | 0.00 | 0.01 | 0.01 | 78 | 1017.7 |
| 20260507224516 | 53 | 180 | 2.0 | 4.0 | 0.00 | 0.01 | 0.01 | 77 | 1017.8 |
| 20260507223516 | 53 | 158 | 1.0 | 4.0 | 0.00 | 0.01 | 0.01 | 77 | 1017.9 |
| 20260507222516 | 53 | 158 | 2.0 | 6.0 | 0.00 | 0.01 | 0.01 | 76 | 1017.9 |
| 20260507221516 | 53 | 158 | 1.0 | 4.0 | 0.00 | 0.01 | 0.01 | 76 | 1017.9 |
| 20260507220516 | 53 | 158 | 1.0 | 2.0 | 0.00 | 0.01 | 0.01 | 75 | 1017.8 |
| 20260507215516 | 54 | 158 | 1.0 | 5.0 | 0.00 | 0.01 | 0.01 | 75 | 1017.7 |
| 20260507214516 | 54 | 0.0 | 2.0 | 0.00 | 0.01 | 0.01 | 74 | 1017.8 | |
| 20260507213516 | 54 | 158 | 2.0 | 4.0 | 0.00 | 0.01 | 0.01 | 74 | 1017.8 |
| 20260507212516 | 54 | 158 | 2.0 | 4.0 | 0.00 | 0.01 | 0.01 | 74 | 1017.8 |
| 20260507211516 | 54 | 158 | 1.0 | 6.0 | 0.00 | 0.01 | 0.01 | 73 | 1017.6 |
| 20260507210516 | 55 | 180 | 2.0 | 5.0 | 0.00 | 0.01 | 0.01 | 73 | 1017.6 |
| 20260507205516 | 55 | 180 | 3.0 | 6.0 | 0.00 | 0.01 | 0.01 | 72 | 1017.6 |
| 20260507204516 | 55 | 158 | 2.0 | 6.0 | 0.00 | 0.01 | 0.01 | 72 | 1017.4 |